Nogales, AZ

9:24 PM MST on December 04, 2016 (GMT -0700)
Nogales International

Weather History for KOLS - March, 2014

Change the Weather History Date:

Thursday, March 27, 2014

  Actual Average (KTUS) Record (KTUS)
Temperature  
Mean Temperature 58 °F 62 °F  
Max Temperature 69 °F 77 °F 94 °F (1988)
Min Temperature 46 °F 48 °F 28 °F (1913)
Degree Days  
Heating Degree Days 8 4  
Month to date heating degree days 163  
Since 1 July heating degree days 1430  
Cooling Degree Days 0 1  
Month to date cooling degree days 19  
Year to date cooling degree days 23  
Growing Degree Days 8 (Base 50)    
Moisture  
Dew Point 33 °F    
Average Humidity 41    
Maximum Humidity 61    
Minimum Humidity 24    
Precipitation  
Precipitation 0.00 in 0.02 in 0.65 in (1992)
Month to date precipitation 0.66  
Year to date precipitation 2.46  
Sea Level Pressure  
Sea Level Pressure 29.85 in    
Wind  
Wind Speed 7 mph (SSW)    
Max Wind Speed 17 mph    
Max Gust Speed 28 mph    
Visibility 10 miles    
Events      
T = Trace of Precipitation, MM = Missing Value Source: NWS Daily Summary

Daily Weather History Graph

Daily Weather History Graph

Search for Another Location

Airport or City:

Trip Planner

Search our weather history database for the weather conditions in past years. The results will help you decide how hot, cold, wet, or windy it might be!

Date:

Astronomy

Mar. 27, 2014 Rise Set
Actual Time 6:18 AM MST 6:39 PM MST
Civil Twilight 5:53 AM MST 7:03 PM MST
Nautical Twilight 5:25 AM MST 7:32 PM MST
Astronomical Twilight 4:56 AM MST 8:01 PM MST
Moon 3:59 AM MST (3/27) 3:41 PM MST (3/27)
Length of Visible Light 13h 10m
Length of Day
12h 21m
Waning Crescent, 12% of the Moon is Illuminated
Mar 27
Waning Crescent
Mar 30
New
Apr 7
First Quarter
Apr 15
Full
Apr 22
Last Quarter

Hourly Weather History & Observations

Time (MST) Temp. Windchill Dew Point Humidity Pressure Visibility Wind Dir Wind Speed Gust Speed Precip Events Conditions
12:54 AM 52.0 °F - 35.1 °F 53% 29.80 in 10.0 mi South 4.6 mph - N/A   Clear
1:54 AM 52.0 °F - 35.1 °F 53% 29.79 in 10.0 mi SE 5.8 mph - N/A   Clear
2:54 AM 52.0 °F - 35.1 °F 53% 29.79 in 10.0 mi SSW 5.8 mph - N/A   Clear
3:54 AM 50.0 °F - 35.1 °F 57% 29.80 in 10.0 mi South 6.9 mph - N/A   Clear
4:54 AM 48.9 °F - 35.1 °F 59% 29.81 in 10.0 mi SSE 6.9 mph - N/A   Clear
5:54 AM 48.0 °F - 35.1 °F 61% 29.83 in 10.0 mi Calm Calm - N/A   Clear
6:54 AM 48.9 °F - 35.1 °F 59% 29.85 in 10.0 mi South 5.8 mph - N/A   Clear
7:54 AM 53.1 °F - 35.1 °F 50% 29.87 in 10.0 mi SE 5.8 mph - N/A   Clear
8:54 AM 57.9 °F - 37.0 °F 46% 29.87 in 10.0 mi SSW 8.1 mph - N/A   Clear
9:54 AM 60.1 °F - 35.1 °F 39% 29.88 in 10.0 mi SW 10.4 mph 18.4 mph N/A   Clear
10:54 AM 64.9 °F - 35.1 °F 33% 29.88 in 10.0 mi SSW 11.5 mph 19.6 mph N/A   Clear
11:54 AM 66.9 °F - 33.1 °F 28% 29.86 in 10.0 mi South 10.4 mph - N/A   Clear
12:54 PM 66.9 °F - 33.1 °F 28% 29.86 in 10.0 mi WSW 17.3 mph 23.0 mph N/A   Clear
1:54 PM 69.1 °F - 34.0 °F 27% 29.83 in 10.0 mi West 15.0 mph 18.4 mph N/A   Clear
2:54 PM 69.1 °F - 32.0 °F 25% 29.82 in 10.0 mi WSW 15.0 mph 27.6 mph N/A   Clear
3:54 PM 66.9 °F - 34.0 °F 30% 29.82 in 10.0 mi WSW 11.5 mph 19.6 mph N/A   Partly Cloudy
4:54 PM 66.9 °F - 28.9 °F 24% 29.82 in 10.0 mi SW 15.0 mph 20.7 mph N/A   Clear
5:54 PM 64.9 °F - 32.0 °F 29% 29.83 in 10.0 mi WSW 15.0 mph 23.0 mph N/A   Clear
6:54 PM 61.0 °F - 35.1 °F 38% 29.85 in 10.0 mi SW 8.1 mph - N/A   Clear
7:54 PM 59.0 °F - 33.1 °F 38% 29.87 in 10.0 mi WSW 6.9 mph - N/A   Clear
8:54 PM 54.0 °F - 28.0 °F 37% 29.89 in 10.0 mi South 5.8 mph - N/A   Clear
9:54 PM 53.1 °F - 25.0 °F 34% 29.91 in 10.0 mi Calm Calm - N/A   Clear
10:54 PM 46.9 °F - 26.1 °F 44% 29.93 in 10.0 mi East 3.5 mph - N/A   Clear
11:54 PM 46.0 °F 44.8 °F 26.1 °F 46% 29.93 in 10.0 mi ESE 3.5 mph - N/A   Clear